Home   Weather   Bad Oeynhausen   Past weeks

Flag for Germany Past Weather in Bad Oeynhausen, North Rhine-Westphalia, Germany — Yesterday and Last 2 Weeks

54 °F


Feels Like: 50 °F
Forecast: 52 / 57 °F
Wind: 10 mph from West

Location: Bueckeburg

Current Time: Oct 27, 2016 at 2:55:55 PM

Latest Report: Oct 27, 2016 at 2:20 PM

Visibility: 2 mi

Pressure: 30.45 "Hg

Humidity: 88%

Dew Point: 50 °F

Location of Bad OeynhausenLocation

Past Weather in Bad Oeynhausen — Graph


Bad Oeynhausen Temperature Yesterday

Maximum temperature yesterday: 50 °F (at 1:20 PM)
Minimum temperature yesterday: 36 °F (at 2:20 AM)
Average temperature yesterday: 43 °F

High & Low Weather Summary for the Past Weeks

High63 °F (Oct 16, 3:20 PM)100% (Oct 13, 9:52 AM)30.45 "Hg (Oct 13, 9:52 AM)
Low34 °F (Oct 23, 8:20 AM)59% (Oct 16, 3:20 PM)29.71 "Hg (Oct 15, 5:20 AM)
Average47 °F91%30.04 "Hg
* Reported Oct 12 1:20 PM — Oct 27 1:49 PM, Bad Oeynhausen, Weather by CustomWeather, © 2016

Note: Actual official high and low records may vary slightly from our data, if they occured in-between our weather recording intervals... More about our weather records


Bad Oeynhausen Weather History for the Previous 24 Hours

Scroll right to see more
Time TempWeatherWind HumidityBarometerVisibility
1:49 PM
Thu, Oct 27
54 °FFog.12 mph88%30.45 "Hg2 mi
1:20 PM54 °FFog.12 mph88%30.45 "Hg2 mi
12:20 PM52 °FFog.9 mph94%30.45 "Hg2 mi
11:20 AM52 °FFog.9 mph94%30.45 "Hg2 mi
10:20 AM50 °FFog.10 mph94%30.42 "Hg2 mi
10:00 AM50 °FFog.9 mph94%30.42 "Hg2 mi
9:20 AM50 °FFog.8 mph94%30.42 "Hg2 mi
8:20 AM50 °FFog.7 mph94%30.42 "Hg2 mi
7:20 AM50 °FFog.10 mph88%30.39 "Hg2 mi
6:50 AM50 °FFog.10 mph88%30.39 "Hg3 mi
6:20 AM50 °FFog.12 mph88%30.39 "Hg3 mi
5:20 AM50 °FCool.8 mph88%30.39 "Hg2 mi
4:20 AM50 °FCool.12 mph88%30.39 "Hg2 mi
3:20 AM50 °FCool.12 mph88%30.39 "Hg2 mi
2:20 AM48 °FCool.8 mph87%30.39 "Hg2 mi
1:20 AM48 °FCool.8 mph87%30.39 "Hg2 mi
12:20 AM48 °FCool.5 mph82%30.39 "Hg2 mi
12:00 AM48 °FPartly cloudy.6 mph82%30.39 "Hg4 mi
11:20 PM
Wed, Oct 26
46 °FPassing clouds.6 mph87%30.39 "Hg4 mi
10:20 PM45 °FPassing clouds.3 mph87%30.39 "Hg4 mi
9:20 PM46 °FPassing clouds.5 mph87%30.39 "Hg4 mi
8:20 PM46 °FPartly cloudy.5 mph87%30.39 "Hg4 mi
7:20 PM43 °FPartly cloudy.3 mph100%30.36 "Hg4 mi
6:20 PM48 °FPassing clouds.2 mph94%30.36 "Hg4 mi
5:20 PM50 °FPartly sunny.3 mph88%30.36 "Hg4 mi
4:20 PM50 °FPartly sunny.3 mph82%30.36 "Hg4 mi
3:20 PM50 °FPartly sunny.5 mph82%30.36 "Hg4 mi
2:20 PM50 °FPartly sunny.2 mph82%30.36 "Hg4 mi
Weather by CustomWeather, © 2016

See weather overviewHow to use our weather pages